NORTHEAST SUFFOLK  -  Freeze Watch Freeze Watch        NORTHWEST SUFFOLK  -  Freeze Watch Freeze Watch        SOUTHEAST SUFFOLK  -  Freeze Watch Freeze Watch        SOUTHWEST SUFFOLK  -  Freeze Watch Freeze Watch      

Active alerts

Northwest Suffolk
  Details for Northwest Suffolk Freeze Watch
Southwest Suffolk
  Details for Southwest Suffolk Freeze Watch
Northeast Suffolk
  Details for Northeast Suffolk Freeze Watch
Southeast Suffolk
  Details for Southeast Suffolk Freeze Watch


WXM80 ListenWXM80 Stop

You find our weather info also at:

UK Metoffice

WeatherCloud

Weather Underground

Northeastern Weather Network

AWEKAS

Citizen Weather Observer Program (CWOP)

HAMweather, WeatherForYou, PWS Weather


Weather Underground History page Text

Daily Summary for August 30, 2016 Units:  English    Metric   Both
« Previous Day
Next Day »
Daily Weekly Monthly Yearly Custom
  High: Low: Average:
Temperature: 86.8 °F 68.9 °F 76.6 °F
Dew Point: 69.8 °F 60.6 °F 65.1 °F
Humidity: 85 % 51 % 68 %
Wind Speed: 7.3 mph 0.0 mph 1.8 mph
Wind Gust: 11.5 mph - -
Wind:- - East
Pressure: 30.15 in 30.00 in -
Precipitation: 0.00 in    
Historical Graphs
 
 
Tabular Data for August 30, 2016
Time Temperature Dew Point Pressure Wind Wind Speed Wind Gust Humidity Rainfall Rate (Hourly)
00:01 74.9 °F 64.5 °F 30.10 in Calm     70 % 0.00 in
00:06 74.8 °F 64.3 °F 30.10 in Calm   2.0 mph 70 % 0.00 in
00:11 74.6 °F 63.8 °F 30.10 in NE 1.0 mph 4.0 mph 69 % 0.00 in
00:16 74.4 °F 63.6 °F 30.11 in ENE 1.0 mph 4.0 mph 69 % 0.00 in
00:21 74.2 °F 63.8 °F 30.10 in NE 0.5 mph 2.3 mph 70 % 0.00 in
00:26 74.0 °F 63.6 °F 30.10 in NE 1.8 mph 3.5 mph 70 % 0.00 in
00:31 73.9 °F 63.5 °F 30.10 in ENE 2.4 mph 3.5 mph 70 % 0.00 in
00:36 73.7 °F 63.7 °F 30.11 in NE 2.4 mph 4.0 mph 71 % 0.00 in
00:41 73.7 °F 64.1 °F 30.11 in NNE 2.2 mph 3.5 mph 72 % 0.00 in
00:46 73.6 °F 64.0 °F 30.11 in NE 1.8 mph 3.5 mph 72 % 0.00 in
00:47 73.6 °F 64.0 °F 30.11 in NNE 2.0 mph 3.5 mph 72 % 0.00 in
00:52 73.5 °F 63.9 °F 30.11 in ENE 3.0 mph 4.6 mph 72 % 0.00 in
00:57 73.5 °F 63.5 °F 30.11 in NE 2.4 mph 4.6 mph 71 % 0.00 in
01:02 73.5 °F 64.3 °F 30.11 in East 2.0 mph 8.1 mph 73 % 0.00 in
01:07 73.5 °F 63.5 °F 30.11 in ENE 2.7 mph 5.8 mph 71 % 0.00 in
01:12 73.5 °F 63.9 °F 30.11 in ENE 1.6 mph 3.5 mph 72 % 0.00 in
01:17 73.5 °F 64.7 °F 30.11 in East 5.1 mph 8.0 mph 74 % 0.00 in
01:22 73.5 °F 63.9 °F 30.11 in ENE 3.7 mph 9.2 mph 72 % 0.00 in
01:28 73.6 °F 63.6 °F 30.11 in ENE 4.1 mph 9.2 mph 71 % 0.00 in
01:33 73.7 °F 63.7 °F 30.11 in ENE 7.3 mph 11.5 mph 71 % 0.00 in
01:38 73.7 °F 63.7 °F 30.11 in ENE 5.1 mph 9.2 mph 71 % 0.00 in
01:43 73.7 °F 63.7 °F 30.11 in East 4.8 mph 7.0 mph 71 % 0.00 in
01:48 73.7 °F 63.7 °F 30.11 in ENE 5.4 mph 11.0 mph 71 % 0.00 in
01:58 73.7 °F 63.3 °F 30.11 in ENE 4.2 mph 8.1 mph 70 % 0.00 in
02:03 73.7 °F 63.3 °F 30.11 in NE 5.3 mph 9.2 mph 70 % 0.00 in
02:08 73.6 °F 63.2 °F 30.11 in ENE 5.3 mph 9.2 mph 70 % 0.00 in
02:13 73.5 °F 63.1 °F 30.11 in ENE 3.9 mph 11.5 mph 70 % 0.00 in
02:19 73.5 °F 63.5 °F 30.11 in ENE 4.2 mph 8.1 mph 71 % 0.00 in
02:24 73.4 °F 63.8 °F 30.11 in NE 3.6 mph 5.8 mph 72 % 0.00 in
02:29 73.3 °F 63.7 °F 30.11 in East 5.2 mph 9.2 mph 72 % 0.00 in
02:34 73.2 °F 63.6 °F 30.11 in East 3.9 mph 7.0 mph 72 % 0.00 in
02:39 73.1 °F 63.5 °F 30.11 in NE 4.3 mph 6.9 mph 72 % 0.00 in
02:44 73.0 °F 63.8 °F 30.11 in ENE 5.6 mph 11.5 mph 73 % 0.00 in
02:49 72.9 °F 63.3 °F 30.11 in ENE 5.4 mph 10.4 mph 72 % 0.00 in
02:54 72.9 °F 62.9 °F 30.11 in East 3.6 mph 8.1 mph 71 % 0.00 in
02:59 72.8 °F 62.4 °F 30.11 in ENE 3.7 mph 9.2 mph 70 % 0.00 in
03:04 72.8 °F 62.4 °F 30.11 in NE 3.8 mph 6.9 mph 70 % 0.00 in
03:10 72.8 °F 63.2 °F 30.11 in ENE 5.2 mph 11.5 mph 72 % 0.00 in
03:15 72.7 °F 63.5 °F 30.11 in NE 4.7 mph 8.1 mph 73 % 0.00 in
03:20 72.6 °F 63.4 °F 30.11 in ENE 3.0 mph 8.1 mph 73 % 0.00 in
03:25 72.5 °F 62.2 °F 30.11 in ENE 3.3 mph 4.6 mph 70 % 0.00 in
03:30 72.4 °F 62.5 °F 30.11 in NE 3.2 mph 8.0 mph 71 % 0.00 in
03:35 72.3 °F 62.0 °F 30.11 in ENE 3.5 mph 6.9 mph 70 % 0.00 in
03:40 72.2 °F 61.9 °F 30.11 in ENE 2.3 mph 3.5 mph 70 % 0.00 in
03:45 72.1 °F 62.6 °F 30.11 in ENE 3.4 mph 8.0 mph 72 % 0.00 in
03:50 72.0 °F 62.1 °F 30.11 in ENE 4.0 mph 8.1 mph 71 % 0.00 in
03:55 71.9 °F 61.2 °F 30.11 in ENE 5.1 mph 7.0 mph 69 % 0.00 in
04:00 71.9 °F 61.6 °F 30.11 in NE 4.5 mph 10.0 mph 70 % 0.00 in
04:05 71.8 °F 61.9 °F 30.11 in East 4.5 mph 6.9 mph 71 % 0.00 in
04:10 71.7 °F 62.2 °F 30.11 in ENE 3.7 mph 4.6 mph 72 % 0.00 in
04:16 71.6 °F 62.1 °F 30.12 in ENE 3.0 mph 8.0 mph 72 % 0.00 in
04:21 71.5 °F 62.0 °F 30.12 in ENE 4.8 mph 10.4 mph 72 % 0.00 in
04:26 71.4 °F 61.5 °F 30.12 in East 3.2 mph 8.1 mph 71 % 0.00 in
04:31 71.4 °F 61.1 °F 30.12 in ENE 5.3 mph 9.2 mph 70 % 0.00 in
04:36 71.3 °F 61.4 °F 30.12 in ENE 3.6 mph 6.9 mph 71 % 0.00 in
04:41 71.2 °F 61.3 °F 30.12 in ENE 3.0 mph 3.5 mph 71 % 0.00 in
04:46 71.0 °F 61.1 °F 30.12 in NE 4.2 mph 6.9 mph 71 % 0.00 in
04:51 70.9 °F 60.6 °F 30.12 in East 4.5 mph 8.1 mph 70 % 0.00 in
04:56 70.9 °F 61.0 °F 30.12 in ENE 1.7 mph 3.5 mph 71 % 0.00 in
05:01 70.8 °F 60.9 °F 30.12 in ENE 5.6 mph 10.4 mph 71 % 0.00 in
05:07 70.7 °F 61.2 °F 30.12 in East 2.3 mph 3.5 mph 72 % 0.00 in
05:12 70.6 °F 61.5 °F 30.12 in ENE 1.9 mph 3.5 mph 73 % 0.00 in
05:17 70.6 °F 61.5 °F 30.12 in ENE 3.8 mph 7.0 mph 73 % 0.00 in
05:22 70.5 °F 61.4 °F 30.12 in ENE 2.9 mph 4.6 mph 73 % 0.00 in
05:27 70.4 °F 61.3 °F 30.12 in ENE 1.2 mph 2.3 mph 73 % 0.00 in
05:32 70.2 °F 60.7 °F 30.12 in East 1.9 mph 3.5 mph 72 % 0.00 in
05:37 70.1 °F 61.0 °F 30.12 in East 1.3 mph 3.5 mph 73 % 0.00 in
05:42 70.0 °F 61.3 °F 30.12 in NE 0.5 mph 2.3 mph 74 % 0.00 in
05:47 69.8 °F 61.1 °F 30.12 in ENE 0.9 mph 2.0 mph 74 % 0.00 in
05:53 69.7 °F 61.4 °F 30.12 in ENE 0.7 mph 2.3 mph 75 % 0.00 in
05:58 69.6 °F 60.9 °F 30.12 in NE 1.1 mph 5.0 mph 74 % 0.00 in
06:03 69.5 °F 60.8 °F 30.13 in East 0.9 mph 3.5 mph 74 % 0.00 in
06:08 69.4 °F 61.1 °F 30.12 in East 0.9 mph 1.2 mph 75 % 0.00 in
06:13 69.3 °F 61.0 °F 30.13 in East 0.9 mph 2.3 mph 75 % 0.00 in
06:18 69.2 °F 60.9 °F 30.13 in ENE 1.0 mph 3.0 mph 75 % 0.00 in
06:23 69.2 °F 61.3 °F 30.13 in NE 0.7 mph 2.3 mph 76 % 0.00 in
06:28 69.2 °F 61.7 °F 30.13 in East 0.7 mph 1.2 mph 77 % 0.00 in
06:33 69.1 °F 61.6 °F 30.12 in East 0.1 mph 1.2 mph 77 % 0.00 in
06:44 69.0 °F 61.5 °F 30.13 in East 0.2 mph 1.2 mph 77 % 0.00 in
06:49 68.9 °F 61.8 °F 30.13 in East 1.1 mph 2.3 mph 78 % 0.00 in
06:54 68.9 °F 61.4 °F 30.13 in East 0.9 mph 2.3 mph 77 % 0.00 in
06:59 69.1 °F 61.9 °F 30.13 in East 1.1 mph 2.3 mph 78 % 0.00 in
07:04 69.2 °F 62.0 °F 30.13 in East 0.7 mph 2.3 mph 78 % 0.00 in
07:09 69.4 °F 62.2 °F 30.13 in East 0.9 mph 2.3 mph 78 % 0.00 in
07:14 69.5 °F 62.7 °F 30.13 in Calm     79 % 0.00 in
07:19 69.6 °F 62.8 °F 30.13 in East 0.1 mph 1.2 mph 79 % 0.00 in
07:24 69.6 °F 62.4 °F 30.14 in East 0.1 mph 1.2 mph 78 % 0.00 in
07:29 69.7 °F 62.5 °F 30.13 in East 0.9 mph 2.3 mph 78 % 0.00 in
07:35 69.9 °F 62.4 °F 30.13 in East 0.8 mph 2.3 mph 77 % 0.00 in
07:40 70.1 °F 62.9 °F 30.13 in East 0.7 mph 2.3 mph 78 % 0.00 in
07:45 70.3 °F 63.1 °F 30.13 in East 0.7 mph 1.2 mph 78 % 0.00 in
07:50 70.5 °F 63.3 °F 30.13 in East 1.2 mph 2.3 mph 78 % 0.00 in
07:55 70.7 °F 63.5 °F 30.13 in East 0.3 mph 1.2 mph 78 % 0.00 in
08:00 71.0 °F 63.8 °F 30.13 in ESE 0.4 mph 2.3 mph 78 % 0.00 in
08:05 71.2 °F 62.9 °F 30.13 in ESE 0.6 mph 1.2 mph 75 % 0.00 in
08:10 71.4 °F 63.4 °F 30.13 in SE 0.9 mph 1.2 mph 76 % 0.00 in
08:15 71.6 °F 63.6 °F 30.13 in SE 0.2 mph 1.2 mph 76 % 0.00 in
08:20 71.6 °F 63.3 °F 30.13 in ESE 0.7 mph 2.3 mph 75 % 0.00 in
08:26 71.8 °F 63.1 °F 30.14 in Calm   1.0 mph 74 % 0.00 in
08:31 72.0 °F 63.2 °F 30.14 in East 1.0 mph 3.0 mph 74 % 0.00 in
08:36 72.1 °F 63.0 °F 30.14 in NE 1.0 mph 4.0 mph 73 % 0.00 in
08:41 72.3 °F 63.5 °F 30.14 in NE 0.7 mph 3.5 mph 74 % 0.00 in
08:46 72.5 °F 63.7 °F 30.14 in ENE 1.1 mph 5.0 mph 74 % 0.00 in
08:51 72.8 °F 64.0 °F 30.14 in NE 0.3 mph 2.3 mph 74 % 0.00 in
09:01 73.2 °F 64.4 °F 30.14 in East 0.2 mph 1.2 mph 74 % 0.00 in
09:06 73.4 °F 64.2 °F 30.14 in ENE 0.9 mph 3.5 mph 73 % 0.00 in
09:11 73.6 °F 64.8 °F 30.14 in NE 1.5 mph 4.0 mph 74 % 0.00 in
09:21 73.7 °F 65.7 °F 30.14 in NNE 2.2 mph 4.6 mph 76 % 0.00 in
09:26 73.8 °F 65.8 °F 30.14 in NNE 2.2 mph 3.5 mph 76 % 0.00 in
09:32 73.9 °F 65.9 °F 30.14 in North 3.4 mph 4.6 mph 76 % 0.00 in
09:37 74.0 °F 65.6 °F 30.14 in NNE 2.9 mph 5.0 mph 75 % 0.00 in
09:42 74.1 °F 66.0 °F 30.14 in NNE 3.0 mph 5.8 mph 76 % 0.00 in
09:47 74.5 °F 66.8 °F 30.14 in ENE 4.1 mph 7.0 mph 77 % 0.00 in
09:52 75.1 °F 66.2 °F 30.14 in NE 2.9 mph 3.5 mph 74 % 0.00 in
09:57 75.8 °F 66.9 °F 30.14 in ENE 3.7 mph 9.0 mph 74 % 0.00 in
10:02 76.5 °F 66.4 °F 30.15 in North 3.1 mph 5.8 mph 71 % 0.00 in
10:07 77.0 °F 66.0 °F 30.14 in NE 2.3 mph 6.9 mph 69 % 0.00 in
10:12 77.4 °F 66.0 °F 30.14 in ENE 1.4 mph 3.5 mph 68 % 0.00 in
10:17 77.4 °F 66.0 °F 30.14 in NE 2.1 mph 3.5 mph 68 % 0.00 in
10:23 77.1 °F 65.7 °F 30.14 in NE 3.5 mph 8.1 mph 68 % 0.00 in
10:28 76.7 °F 65.3 °F 30.14 in North 2.4 mph 6.0 mph 68 % 0.00 in
10:33 76.5 °F 66.0 °F 30.14 in NNW 2.0 mph 5.8 mph 70 % 0.00 in
10:38 76.3 °F 66.2 °F 30.14 in NNE 3.3 mph 5.0 mph 71 % 0.00 in
10:43 76.3 °F 66.2 °F 30.14 in NE 3.1 mph 5.0 mph 71 % 0.00 in
10:48 76.2 °F 66.5 °F 30.14 in East 2.4 mph 5.0 mph 72 % 0.00 in
10:53 76.4 °F 66.7 °F 30.14 in East 2.5 mph 8.1 mph 72 % 0.00 in
10:58 76.8 °F 67.1 °F 30.14 in NE 2.8 mph 5.8 mph 72 % 0.00 in
11:03 77.6 °F 67.9 °F 30.14 in North 3.1 mph 4.6 mph 72 % 0.00 in
11:08 78.4 °F 67.4 °F 30.13 in NNE 3.1 mph 6.0 mph 69 % 0.00 in
11:14 79.2 °F 68.6 °F 30.13 in NE 1.8 mph 5.8 mph 70 % 0.00 in
11:19 79.8 °F 67.9 °F 30.13 in NE 2.7 mph 8.1 mph 67 % 0.00 in
11:24 80.1 °F 67.7 °F 30.13 in ENE 1.7 mph 6.9 mph 66 % 0.00 in
11:29 80.7 °F 68.3 °F 30.12 in NE 2.9 mph 5.0 mph 66 % 0.00 in
11:34 81.4 °F 68.1 °F 30.12 in ENE 1.7 mph 3.5 mph 64 % 0.00 in
11:39 81.8 °F 68.0 °F 30.12 in NNE 2.2 mph 4.0 mph 63 % 0.00 in
11:44 82.2 °F 69.3 °F 30.12 in NNE 3.1 mph 5.8 mph 65 % 0.00 in
11:49 82.6 °F 68.7 °F 30.12 in NE 2.2 mph 3.5 mph 63 % 0.00 in
11:54 82.8 °F 68.4 °F 30.11 in North 4.4 mph 6.0 mph 62 % 0.00 in
11:59 83.1 °F 69.2 °F 30.11 in ENE 1.7 mph 4.6 mph 63 % 0.00 in
12:05 83.2 °F 68.3 °F 30.11 in NE 3.5 mph 8.1 mph 61 % 0.00 in
12:10 83.2 °F 69.8 °F 30.11 in NNE 3.3 mph 4.6 mph 64 % 0.00 in
12:15 83.6 °F 69.2 °F 30.11 in ENE 1.9 mph 3.5 mph 62 % 0.00 in
12:20 83.6 °F 69.2 °F 30.11 in East 2.1 mph 3.5 mph 62 % 0.00 in
12:25 83.6 °F 68.7 °F 30.11 in ENE 3.3 mph 4.6 mph 61 % 0.00 in
12:30 83.6 °F 69.7 °F 30.11 in NE 2.5 mph 4.6 mph 63 % 0.00 in
12:40 83.8 °F 69.4 °F 30.10 in NE 2.5 mph 5.8 mph 62 % 0.00 in
12:45 83.5 °F 68.2 °F 30.11 in NNE 5.8 mph 9.2 mph 60 % 0.00 in
12:50 83.5 °F 69.6 °F 30.10 in NE 3.6 mph 8.0 mph 63 % 0.00 in
12:55 83.3 °F 68.0 °F 30.10 in NE 3.4 mph 8.1 mph 60 % 0.00 in
13:01 83.3 °F 69.8 °F 30.10 in NE 2.3 mph 3.5 mph 64 % 0.00 in
13:10 83.1 °F 69.6 °F 30.10 in NE 3.0 mph 7.0 mph 64 % 0.00 in
13:16 83.2 °F 68.8 °F 30.10 in NE 3.0 mph 6.0 mph 62 % 0.00 in
13:20 83.3 °F 68.0 °F 30.10 in NE 3.0 mph 7.0 mph 60 % 0.00 in
13:25 83.5 °F 69.5 °F 30.10 in NNE 3.0 mph 7.0 mph 63 % 0.00 in
13:30 83.5 °F 69.6 °F 30.10 in NNE 3.0 mph 6.0 mph 63 % 0.00 in
13:35 83.4 °F 69.5 °F 30.10 in ENE 2.2 mph 3.5 mph 63 % 0.00 in
13:40 83.4 °F 69.0 °F 30.10 in NE 2.0 mph 5.0 mph 62 % 0.00 in
13:45 83.5 °F 69.1 °F 30.09 in ENE 2.0 mph 5.0 mph 62 % 0.00 in
13:50 83.5 °F 69.1 °F 30.09 in NE 1.6 mph 3.5 mph 62 % 0.00 in
13:55 83.9 °F 69.4 °F 30.09 in NE 1.0 mph 7.0 mph 62 % 0.00 in
14:01 84.1 °F 69.2 °F 30.09 in NNE 3.1 mph 5.8 mph 61 % 0.00 in
14:06 84.3 °F 68.4 °F 30.09 in North 4.0 mph 6.9 mph 59 % 0.00 in
14:11 84.4 °F 68.0 °F 30.08 in ENE 2.4 mph 4.6 mph 58 % 0.00 in
14:16 84.3 °F 67.4 °F 30.08 in NNE 4.0 mph 5.8 mph 57 % 0.00 in
14:21 84.3 °F 67.4 °F 30.08 in NNE 1.5 mph 5.8 mph 57 % 0.00 in
14:26 84.2 °F 67.3 °F 30.08 in ENE 1.7 mph 3.5 mph 57 % 0.00 in
14:31 84.2 °F 65.2 °F 30.08 in Calm   3.5 mph 53 % 0.00 in
14:36 84.3 °F 66.9 °F 30.08 in ENE 1.9 mph 3.0 mph 56 % 0.00 in
14:41 84.1 °F 65.1 °F 30.07 in NE 0.5 mph 2.3 mph 53 % 0.00 in
14:46 84.1 °F 66.2 °F 30.06 in NE 1.9 mph 3.5 mph 55 % 0.00 in
14:52 84.4 °F 64.9 °F 30.06 in ENE 1.9 mph 2.3 mph 52 % 0.00 in
14:57 84.4 °F 65.9 °F 30.06 in ENE 0.5 mph 1.2 mph 54 % 0.00 in
15:02 84.6 °F 66.7 °F 30.06 in NE 0.5 mph 2.3 mph 55 % 0.00 in
15:07 84.7 °F 66.2 °F 30.05 in NE 1.2 mph 2.3 mph 54 % 0.00 in
15:12 84.9 °F 66.9 °F 30.05 in NE 0.1 mph 1.2 mph 55 % 0.00 in
15:17 85.1 °F 66.6 °F 30.05 in NE 0.3 mph 3.5 mph 54 % 0.00 in
15:22 85.3 °F 65.7 °F 30.05 in South 0.3 mph 2.3 mph 52 % 0.00 in
15:27 85.7 °F 67.7 °F 30.04 in NE 1.5 mph 3.5 mph 55 % 0.00 in
15:32 86.0 °F 67.4 °F 30.04 in NW 1.7 mph 2.3 mph 54 % 0.00 in
15:37 86.3 °F 67.2 °F 30.04 in ENE 1.4 mph 4.0 mph 53 % 0.00 in
15:43 86.4 °F 67.2 °F 30.04 in NNE 3.9 mph 5.0 mph 53 % 0.00 in
15:48 86.4 °F 67.2 °F 30.04 in NNW 2.4 mph 4.6 mph 53 % 0.00 in
15:53 86.5 °F 66.2 °F 30.04 in NNE 2.0 mph 4.0 mph 51 % 0.00 in
15:58 86.3 °F 66.6 °F 30.03 in NNE 1.3 mph 3.5 mph 52 % 0.00 in
16:03 86.4 °F 66.7 °F 30.03 in NE 0.6 mph 2.3 mph 52 % 0.00 in
16:08 86.5 °F 67.3 °F 30.03 in NNE 0.1 mph 1.2 mph 53 % 0.00 in
16:13 86.5 °F 66.8 °F 30.03 in ENE 2.3 mph 3.5 mph 52 % 0.00 in
16:18 86.5 °F 67.3 °F 30.03 in NNE 0.8 mph 2.0 mph 53 % 0.00 in
16:23 86.4 °F 67.8 °F 30.02 in Calm   1.2 mph 54 % 0.00 in
16:28 86.4 °F 67.8 °F 30.03 in North 0.4 mph 1.2 mph 54 % 0.00 in
16:34 86.4 °F 67.2 °F 30.02 in North 0.1 mph 1.2 mph 53 % 0.00 in
16:39 86.5 °F 67.3 °F 30.03 in ENE 0.1 mph 2.3 mph 53 % 0.00 in
16:44 86.5 °F 67.3 °F 30.02 in East 0.4 mph 2.3 mph 53 % 0.00 in
16:49 86.8 °F 67.1 °F 30.03 in SE 1.3 mph 3.5 mph 52 % 0.00 in
16:54 86.5 °F 66.8 °F 30.02 in SE 0.9 mph 3.0 mph 52 % 0.00 in
16:59 86.0 °F 66.3 °F 30.02 in WSW 1.0 mph 3.5 mph 52 % 0.00 in
17:04 85.9 °F 67.3 °F 30.02 in WSW 1.5 mph 3.5 mph 54 % 0.00 in
17:09 85.8 °F 66.7 °F 30.02 in SE 1.1 mph 3.0 mph 53 % 0.00 in
17:14 85.6 °F 66.5 °F 30.02 in SW 0.7 mph 2.3 mph 53 % 0.00 in
17:19 85.5 °F 65.9 °F 30.02 in SE 1.1 mph 3.5 mph 52 % 0.00 in
17:25 85.4 °F 66.9 °F 30.02 in SW 1.6 mph 3.5 mph 54 % 0.00 in
17:30 85.2 °F 65.6 °F 30.02 in SE 0.3 mph 3.5 mph 52 % 0.00 in
17:35 84.8 °F 65.2 °F 30.02 in SSE 2.5 mph 3.5 mph 52 % 0.00 in
17:40 84.0 °F 65.0 °F 30.01 in Calm   1.2 mph 53 % 0.00 in
17:45 83.7 °F 65.3 °F 30.01 in SE 0.1 mph 2.3 mph 54 % 0.00 in
17:50 83.4 °F 65.0 °F 30.02 in SE 0.1 mph 1.2 mph 54 % 0.00 in
17:55 83.1 °F 64.7 °F 30.01 in SE 0.7 mph 3.5 mph 54 % 0.00 in
18:00 82.8 °F 64.5 °F 30.01 in SSE 1.9 mph 5.8 mph 54 % 0.00 in
18:05 82.3 °F 64.5 °F 30.01 in SE 1.9 mph 5.8 mph 55 % 0.00 in
18:10 81.9 °F 64.1 °F 30.01 in SE 2.4 mph 5.8 mph 55 % 0.00 in
18:15 81.6 °F 64.4 °F 30.01 in SE 0.2 mph 5.8 mph 56 % 0.00 in
18:21 81.4 °F 64.2 °F 30.00 in SE 1.2 mph 4.0 mph 56 % 0.00 in
18:26 81.1 °F 63.9 °F 30.00 in Calm   7.0 mph 56 % 0.00 in
18:31 80.9 °F 64.2 °F 30.00 in SE 2.0 mph 6.0 mph 57 % 0.00 in
18:36 80.5 °F 63.9 °F 30.00 in SSE 1.0 mph 10.0 mph 57 % 0.00 in
18:41 80.2 °F 64.1 °F 30.00 in Calm   5.0 mph 58 % 0.00 in
18:46 80.0 °F 63.9 °F 30.00 in Calm   4.0 mph 58 % 0.00 in
18:51 79.7 °F 63.6 °F 30.01 in SSW 1.2 mph 4.6 mph 58 % 0.00 in
18:56 79.6 °F 64.0 °F 30.01 in Calm   2.0 mph 59 % 0.00 in
19:01 79.2 °F 63.6 °F 30.01 in SSW 0.5 mph 3.5 mph 59 % 0.00 in
19:06 78.9 °F 63.8 °F 30.01 in SSE 0.7 mph 2.3 mph 60 % 0.00 in
19:11 78.6 °F 63.6 °F 30.01 in SSE 0.1 mph 1.2 mph 60 % 0.00 in
19:16 78.3 °F 63.3 °F 30.01 in SSE 0.5 mph 2.3 mph 60 % 0.00 in
19:21 77.9 °F 63.4 °F 30.01 in SSE 0.1 mph 2.3 mph 61 % 0.00 in
19:26 77.7 °F 63.6 °F 30.01 in SSE 0.4 mph 2.0 mph 62 % 0.00 in
19:31 77.4 °F 63.4 °F 30.01 in South 0.3 mph 2.3 mph 62 % 0.00 in
19:36 77.2 °F 63.6 °F 30.01 in South 0.2 mph 3.5 mph 63 % 0.00 in
19:41 76.9 °F 63.8 °F 30.01 in South 0.5 mph 3.5 mph 64 % 0.00 in
19:46 76.5 °F 63.9 °F 30.00 in SSE 0.4 mph 2.3 mph 65 % 0.00 in
19:52 76.2 °F 64.0 °F 30.00 in SSE 0.4 mph 2.3 mph 66 % 0.00 in
19:57 75.9 °F 64.2 °F 30.01 in SSE 0.4 mph 2.3 mph 67 % 0.00 in
20:02 75.7 °F 64.4 °F 30.01 in Calm     68 % 0.00 in
20:07 75.5 °F 64.6 °F 30.01 in SE 3.1 mph 5.8 mph 69 % 0.00 in
20:12 75.2 °F 64.7 °F 30.01 in SSE 1.0 mph 3.5 mph 70 % 0.00 in
20:17 75.1 °F 65.1 °F 30.01 in SSE 0.7 mph 2.3 mph 71 % 0.00 in
20:22 74.9 °F 65.3 °F 30.02 in South 0.2 mph 3.0 mph 72 % 0.00 in
20:27 74.8 °F 65.2 °F 30.01 in SW 0.4 mph 3.5 mph 72 % 0.00 in
20:32 74.7 °F 65.5 °F 30.01 in SSE 0.2 mph 1.2 mph 73 % 0.00 in
20:37 74.5 °F 65.7 °F 30.02 in SSE 0.6 mph 1.2 mph 74 % 0.00 in
20:43 74.3 °F 65.9 °F 30.02 in South 0.7 mph 2.3 mph 75 % 0.00 in
20:48 74.2 °F 65.8 °F 30.02 in Calm   1.2 mph 75 % 0.00 in
20:53 74.1 °F 66.0 °F 30.02 in Calm   1.2 mph 76 % 0.00 in
20:58 74.0 °F 66.0 °F 30.02 in SE 0.1 mph 2.3 mph 76 % 0.00 in
21:03 73.9 °F 66.2 °F 30.02 in SSE 0.1 mph 1.2 mph 77 % 0.00 in
21:08 73.8 °F 66.1 °F 30.02 in Calm   3.5 mph 77 % 0.00 in
21:13 73.7 °F 66.4 °F 30.02 in SSE 0.1 mph 1.2 mph 78 % 0.00 in
21:18 73.6 °F 66.3 °F 30.02 in Calm     78 % 0.00 in
21:23 73.6 °F 66.3 °F 30.02 in Calm   1.2 mph 78 % 0.00 in
21:28 73.5 °F 66.6 °F 30.02 in SSE 0.1 mph 1.2 mph 79 % 0.00 in
21:34 73.5 °F 66.6 °F 30.02 in SSE 0.3 mph 1.2 mph 79 % 0.00 in
21:39 73.4 °F 66.5 °F 30.02 in South 0.2 mph 2.3 mph 79 % 0.00 in
21:44 73.4 °F 66.9 °F 30.02 in Calm   1.2 mph 80 % 0.00 in
21:49 73.4 °F 66.9 °F 30.02 in Calm     80 % 0.00 in
21:54 73.3 °F 66.8 °F 30.02 in SSE 0.6 mph 2.3 mph 80 % 0.00 in
21:59 73.3 °F 66.8 °F 30.02 in SSE 0.7 mph 3.5 mph 80 % 0.00 in
22:04 73.3 °F 67.1 °F 30.02 in SSE 0.4 mph 1.2 mph 81 % 0.00 in
22:14 73.2 °F 66.7 °F 30.03 in Calm     80 % 0.00 in
22:19 73.2 °F 67.0 °F 30.02 in Calm     81 % 0.00 in
22:25 73.1 °F 66.9 °F 30.02 in Calm   1.0 mph 81 % 0.00 in
22:30 73.1 °F 67.3 °F 30.02 in Calm   1.2 mph 82 % 0.00 in
22:35 73.0 °F 67.2 °F 30.02 in SSE 0.2 mph 1.2 mph 82 % 0.00 in
22:40 73.0 °F 67.2 °F 30.02 in SSE 0.7 mph 2.3 mph 82 % 0.00 in
22:45 73.0 °F 67.2 °F 30.02 in Calm     82 % 0.00 in
22:50 72.9 °F 67.1 °F 30.02 in Calm     82 % 0.00 in
22:55 72.9 °F 67.4 °F 30.02 in SSE 0.2 mph 1.2 mph 83 % 0.00 in
23:00 72.9 °F 67.4 °F 30.02 in Calm   1.2 mph 83 % 0.00 in
23:05 72.9 °F 67.4 °F 30.02 in SSE 0.4 mph 2.3 mph 83 % 0.00 in
23:10 72.8 °F 67.3 °F 30.02 in Calm   1.2 mph 83 % 0.00 in
23:16 72.8 °F 67.3 °F 30.02 in Calm     83 % 0.00 in
23:21 72.8 °F 67.3 °F 30.02 in Calm   1.0 mph 83 % 0.00 in
23:26 72.8 °F 67.3 °F 30.02 in Calm     83 % 0.00 in
23:31 72.7 °F 67.6 °F 30.02 in Calm     84 % 0.00 in
23:36 72.7 °F 67.2 °F 30.02 in Calm     83 % 0.00 in
23:41 72.6 °F 67.1 °F 30.02 in WSW 0.6 mph 2.0 mph 83 % 0.00 in
23:46 72.6 °F 67.5 °F 30.02 in Calm   1.0 mph 84 % 0.00 in
23:51 72.5 °F 67.4 °F 30.02 in Calm     84 % 0.00 in
23:56 72.5 °F 67.7 °F 30.02 in Calm     85 % 0.00 in
Crab Meadow Weather
Compliments of Weather Underground - 3 mb

Script developed by  Jim McMurry - jmcmurry@mwt.net Adapted for the template by  Wim van der Kuil - Leuven-Template.eu

Barometer: A barometer is an instrument used to measure atmospheric pressure. A barometer is commonly used for weather prediction, as high air pressure in a region indicates fair weather while low pressure indicates that storms are more likely. When used in combination with wind observations, reasonably accurate short-term forecasts can be made.